Location: Ariel
(45.9570°N, 122.5700°W)
Time: 20:04:30
(UTC-07:00)

SR - Visible Passes

Search period start: 19 July 2019 00:00
Search period end: 29 July 2019 00:00
Orbit: 580 x 876 km, 66.7° (Epoch: 19 July)

Date Brightness Start Highest point End Pass type
(mag) Time Alt. Az. Time Alt. Az. Time Alt. Az.
19 Jul ? 04:21:54 10° N 04:23:47 12° NNE 04:25:43 10° NE visible
19 Jul ? 22:17:01 10° SW 22:21:17 76° NW 22:25:50 10° NNE visible
20 Jul ? 00:01:42 10° WNW 00:04:12 15° NNW 00:06:49 10° N visible
20 Jul ? 21:27:36 10° SSW 21:31:44 51° ESE 21:36:06 10° NE visible
20 Jul ? 23:10:34 10° W 23:14:05 23° NW 23:17:48 10° NNE visible
21 Jul ? 04:23:46 10° N 04:27:07 17° NE 04:30:36 10° ENE visible
21 Jul ? 22:20:04 10° WSW 22:24:09 40° NW 22:28:29 10° NNE visible
22 Jul ? 00:07:04 10° NNW 00:07:35 10° NNW 00:08:05 10° NNW visible
22 Jul ? 03:35:05 10° N 03:36:51 12° NNE 03:38:40 10° NE visible
22 Jul ? 21:30:07 10° SW 21:34:24 81° NW 21:38:59 10° NNE visible
22 Jul ? 23:14:37 10° WNW 23:17:17 15° NW 23:20:02 10° N visible
23 Jul ? 04:26:02 10° NNW 04:30:17 26° NE 04:34:49 10° E visible
23 Jul ? 22:23:34 10° W 22:27:10 24° NW 22:30:58 10° NNE visible
24 Jul ? 03:36:55 10° N 03:40:12 17° NE 03:43:37 10° ENE visible
24 Jul ? 21:33:07 10° WSW 21:37:15 43° NW 21:41:39 10° NNE visible
24 Jul ? 23:19:37 10° NW 23:20:38 11° NNW 23:21:41 10° NNW visible
25 Jul ? 02:48:17 10° N 02:49:55 11° NNE 02:51:36 10° NE visible
25 Jul ? 04:28:28 10° NNW 04:33:20 41° NE 04:38:33 10° ESE visible
25 Jul ? 22:27:33 10° WNW 22:30:21 16° NW 22:33:16 10° N visible
26 Jul ? 03:39:10 10° NNW 03:43:24 25° NE 03:47:53 10° E visible
26 Jul ? 21:36:34 10° W 21:40:15 26° NW 21:44:09 10° NNE visible
27 Jul ? 02:50:04 10° N 02:53:17 16° NE 02:56:38 10° ENE visible
27 Jul ? 04:31:03 10° NNW 04:36:15 68° NE 04:41:50 10° SE visible
27 Jul ? 22:32:20 10° NW 22:33:42 11° NNW 22:35:05 10° N visible
28 Jul ? 02:01:30 10° N 02:03:00 11° NNE 02:04:31 10° NE visible
28 Jul ? 03:41:36 10° NNW 03:46:27 39° NE 03:51:39 10° ESE visible
28 Jul ? 21:40:30 10° WNW 21:43:25 17° NW 21:46:29 10° N visible
